sat.trackr.live / text

‹ back to catalog

STARLINK-36992

NORAD 68149 · 2026-049H

PAYLOAD ACTIVE UNKNOWN

§ Identity

Operator
Country
US
Launch date
2026-03-13
Launch site
AFWTR
Launch vehicle
Mass (kg)
RCS (m²)

Purposes: comms

External: N2YO · Heavens-Above · Gunter

§ Orbital elements

Epoch: 2026-05-24T23:44:05.699904Z

Period
93.91 min
Inclination
97.2854°
Eccentricity
0.0001911
Mean motion
15.33456130 rev/d
Perigee alt
464.2 km
Apogee alt
466.8 km
Semi-major
6,843.6 km
B*
4.5339e-4
RAAN
166.7007°
Arg perigee
106.1525°
Mean anomaly
253.9928°
Rev number
1,134

§ Raw data

STARLINK-369921 68149U 26049H   26144.98895486  .00014596  00000+0  45339-3 0  99942 68149  97.2854 166.7007 0001911 106.1525 253.9928 15.33456130 11342

JSON: /api/v1/satellites/68149 · /tle

For live sub-satellite position, see the globe view (requires WebGL).

§ Visibility from observer

Set your observer location to see the next 7 days of passes ≥ 10°. The values pass through the URL so the page stays shareable.

No JS? Fill the form by hand. The geolocation button needs JavaScript.